Location: Breitenfeld
(46.8500°N, 15.6333°E)
Time: 01:51:26
(UTC+00:00)

ERS-1 Rocket - Pass Details

Date: 09 April 2020
Orbit: 754 x 757 km, 98.5° (Epoch: 04 June)

Event Time Altitude Azimuth Distance (km) Brightness Sun altitude
Exits shadow 20:47:00 65° 262° (W) 833 3.1 -27.8°
Drops below altitude 10° 20:51:58 10° 340° (NNW) 2,291 6.3 -28.3°
Sets 20:54:18 0° 344° (NNW) 3,221 7.3 -28.6°
